RYR1UN LIBD-LBSF

Flight info

Callsign RYR1UN
Flight time 0h 57m
Altitude 37000
Route VURKE DCT PAPIZ DCT MAVAR DCT BUREK DCT SKJ DCT SIN T215 VELBA T343 MOREK
Aircraft B738/M-SDE3FGILRWY/SB1

Departure

Time 2026-04-21 15:06
Airport Bari Karol Wojtyła International Airport (LIBD)

Arrival

Time 2026-04-21 16:03
Airport Sofia Airport (LBSF)
Time Latitude Longitude Altitude Speed Heading
2026-04-21 14:18 41.13651 16.76616 158 ft 0 kts 203°
2026-04-21 15:00 41.13643 16.76604 158 ft 3 kts 251°
2026-04-21 15:00 41.13646 16.76498 158 ft 19 kts 259°
2026-04-21 15:01 41.13595 16.76315 158 ft 22 kts 249°
2026-04-21 15:01 41.13578 16.76129 157 ft 21 kts 298°
2026-04-21 15:01 41.13636 16.75962 157 ft 20 kts 258°
2026-04-21 15:01 41.13588 16.75789 157 ft 20 kts 250°
2026-04-21 15:02 41.13541 16.75625 157 ft 19 kts 249°
2026-04-21 15:02 41.13489 16.75441 157 ft 25 kts 249°
2026-04-21 15:02 41.13426 16.75220 157 ft 25 kts 249°
2026-04-21 15:02 41.13367 16.75010 157 ft 23 kts 250°
2026-04-21 15:03 41.13311 16.74812 157 ft 23 kts 249°
2026-04-21 15:03 41.13256 16.74621 157 ft 22 kts 249°
2026-04-21 15:03 41.13203 16.74434 157 ft 21 kts 249°
2026-04-21 15:03 41.13165 16.74251 156 ft 20 kts 281°
2026-04-21 15:04 41.13240 16.74119 150 ft 19 kts 335°
2026-04-21 15:04 41.13319 16.74176 148 ft 13 kts 69°
2026-04-21 15:04 41.13320 16.74182 148 ft 0 kts 69°
2026-04-21 15:05 41.13385 16.74411 149 ft 59 kts 69°
2026-04-21 15:05 41.13612 16.75210 149 ft 124 kts 69°
2026-04-21 15:06 41.13967 16.76477 416 ft 155 kts 69°
2026-04-21 15:06 41.14329 16.77771 1326 ft 151 kts 70°
2026-04-21 15:06 41.14706 16.79120 2000 ft 159 kts 68°
2026-04-21 15:06 41.15140 16.80631 2308 ft 192 kts 68°
2026-04-21 15:07 41.15650 16.82411 2536 ft 218 kts 68°
2026-04-21 15:07 41.16214 16.84393 2791 ft 240 kts 69°
2026-04-21 15:07 41.16825 16.86550 3131 ft 258 kts 68°
2026-04-21 15:07 41.17466 16.88826 3789 ft 265 kts 68°
2026-04-21 15:08 41.18116 16.91134 4577 ft 270 kts 69°
2026-04-21 15:08 41.18734 16.93526 5276 ft 278 kts 79°
2026-04-21 15:08 41.18695 16.96116 5921 ft 287 kts 101°
2026-04-21 15:08 41.18339 16.98763 6582 ft 296 kts 102°
2026-04-21 15:09 41.17945 17.01468 7298 ft 300 kts 102°
2026-04-21 15:09 41.17543 17.04200 8089 ft 303 kts 102°
2026-04-21 15:09 41.17140 17.06962 8818 ft 308 kts 102°
2026-04-21 15:09 41.16733 17.09775 9554 ft 313 kts 101°
2026-04-21 15:10 41.16323 17.12635 10212 ft 320 kts 101°
2026-04-21 15:10 41.15896 17.15630 10430 ft 343 kts 101°
2026-04-21 15:10 41.15599 17.17720 10651 ft 353 kts 101°
2026-04-21 15:10 41.15141 17.20957 11256 ft 360 kts 101°
2026-04-21 15:11 41.14676 17.24243 11993 ft 363 kts 101°
2026-04-21 15:11 41.14208 17.27552 12746 ft 367 kts 100°
2026-04-21 15:11 41.13735 17.30893 13478 ft 371 kts 100°
2026-04-21 15:11 41.13254 17.34278 14186 ft 375 kts 100°
2026-04-21 15:12 41.12768 17.37700 14867 ft 380 kts 100°
2026-04-21 15:12 41.12274 17.41168 15548 ft 385 kts 100°
2026-04-21 15:12 41.11774 17.44669 16231 ft 389 kts 100°
2026-04-21 15:12 41.11266 17.48218 16913 ft 394 kts 100°
2026-04-21 15:13 41.10752 17.51805 17582 ft 399 kts 100°
2026-04-21 15:13 41.10230 17.55438 18250 ft 404 kts 100°
2026-04-21 15:13 41.09700 17.59110 18829 ft 408 kts 100°
2026-04-21 15:13 41.09164 17.62822 19431 ft 412 kts 100°
2026-04-21 15:14 41.08621 17.66569 20019 ft 415 kts 100°
2026-04-21 15:14 41.08073 17.70348 20591 ft 420 kts 100°
2026-04-21 15:14 41.07518 17.74161 21161 ft 424 kts 100°
2026-04-21 15:14 41.06956 17.78011 21720 ft 428 kts 100°
2026-04-21 15:15 41.06387 17.81903 22268 ft 432 kts 100°
2026-04-21 15:15 41.05811 17.85828 22809 ft 436 kts 100°
2026-04-21 15:15 41.05229 17.89792 23341 ft 440 kts 100°
2026-04-21 15:15 41.04648 17.93733 23802 ft 444 kts 100°
2026-04-21 15:16 41.04053 17.97760 24258 ft 447 kts 100°
2026-04-21 15:16 41.03452 18.01822 24702 ft 450 kts 100°
2026-04-21 15:16 41.02845 18.05905 25138 ft 454 kts 99°
2026-04-21 15:16 41.02233 18.10018 25565 ft 457 kts 99°
2026-04-21 15:17 41.01615 18.14161 25990 ft 460 kts 99°
2026-04-21 15:17 41.00991 18.18334 26410 ft 463 kts 99°
2026-04-21 15:17 41.00362 18.22528 26817 ft 467 kts 99°
2026-04-21 15:17 40.99726 18.26757 27216 ft 470 kts 99°
2026-04-21 15:18 40.99084 18.31012 27599 ft 473 kts 99°
2026-04-21 15:18 40.98437 18.35293 27999 ft 476 kts 99°
2026-04-21 15:18 40.97784 18.39597 28383 ft 479 kts 99°
2026-04-21 15:18 40.97126 18.43929 28750 ft 482 kts 99°
2026-04-21 15:19 40.96462 18.48286 29120 ft 485 kts 99°
2026-04-21 15:19 40.95792 18.52671 29483 ft 487 kts 99°
2026-04-21 15:19 40.95116 18.57079 29841 ft 490 kts 99°
2026-04-21 15:19 40.94435 18.61509 30152 ft 493 kts 99°
2026-04-21 15:20 40.93750 18.65961 30458 ft 495 kts 99°
2026-04-21 15:20 40.93061 18.70420 30776 ft 496 kts 99°
2026-04-21 15:20 40.92368 18.74895 31084 ft 497 kts 99°
2026-04-21 15:20 40.91672 18.79380 31378 ft 499 kts 99°
2026-04-21 15:21 40.90972 18.83875 31718 ft 499 kts 100°
2026-04-21 15:21 40.90284 18.88360 32133 ft 497 kts 97°
2026-04-21 15:21 40.89985 18.92874 32552 ft 491 kts 86°
2026-04-21 15:21 40.90246 18.97352 32953 ft 485 kts 77°
2026-04-21 15:22 40.90977 19.01666 33297 ft 479 kts 66°
2026-04-21 15:22 40.92138 19.05773 33637 ft 476 kts 63°
2026-04-21 15:22 40.93362 19.09830 33964 ft 475 kts 63°
2026-04-21 15:22 40.94598 19.13883 34242 ft 475 kts 63°
2026-04-21 15:23 40.95828 19.17940 34492 ft 476 kts 63°
2026-04-21 15:23 40.97050 19.22017 34753 ft 476 kts 64°
2026-04-21 15:23 40.98256 19.26092 35023 ft 476 kts 64°
2026-04-21 15:23 40.99455 19.30180 35280 ft 476 kts 64°
2026-04-21 15:24 41.00649 19.34275 35522 ft 477 kts 64°
2026-04-21 15:24 41.01840 19.38375 35755 ft 477 kts 64°
2026-04-21 15:24 41.03029 19.42478 36008 ft 477 kts 64°
2026-04-21 15:24 41.04202 19.46533 36257 ft 477 kts 65°
2026-04-21 15:25 41.05388 19.50639 36492 ft 478 kts 65°
2026-04-21 15:25 41.06591 19.54806 36707 ft 478 kts 65°
2026-04-21 15:25 41.07761 19.58865 36924 ft 478 kts 65°
2026-04-21 15:25 41.08953 19.63006 36933 ft 482 kts 65°
2026-04-21 15:26 41.11336 19.71303 36937 ft 480 kts 65°
2026-04-21 15:26 41.13692 19.79542 36943 ft 476 kts 65°
2026-04-21 15:27 41.16032 19.87741 36951 ft 474 kts 65°
2026-04-21 15:27 41.18359 19.95922 36960 ft 473 kts 65°
2026-04-21 15:28 41.20678 20.04099 36962 ft 473 kts 65°
2026-04-21 15:28 41.22996 20.12296 36955 ft 475 kts 65°
2026-04-21 15:29 41.25320 20.20542 36965 ft 477 kts 65°
2026-04-21 15:29 41.27645 20.28825 36967 ft 480 kts 65°
2026-04-21 15:30 41.29982 20.37166 36950 ft 482 kts 65°
2026-04-21 15:30 41.32314 20.45533 36945 ft 484 kts 66°
2026-04-21 15:31 41.34649 20.53934 36959 ft 484 kts 66°
2026-04-21 15:31 41.36972 20.62323 36970 ft 483 kts 66°
2026-04-21 15:32 41.39261 20.70611 36969 ft 483 kts 66°
2026-04-21 15:32 41.41553 20.78939 36967 ft 482 kts 66°
2026-04-21 15:33 41.43851 20.87315 36942 ft 481 kts 66°
2026-04-21 15:33 41.46141 20.95690 36949 ft 480 kts 66°
2026-04-21 15:34 41.47285 20.99885 36632 ft 482 kts 66°
2026-04-21 15:34 41.48421 21.04058 36309 ft 475 kts 66°
2026-04-21 15:34 41.49540 21.08182 35937 ft 470 kts 66°
2026-04-21 15:34 41.50645 21.12260 35546 ft 466 kts 66°
2026-04-21 15:35 41.51742 21.16312 35160 ft 463 kts 66°
2026-04-21 15:35 41.52832 21.20342 34763 ft 459 kts 66°
2026-04-21 15:35 41.53909 21.24329 34399 ft 456 kts 66°
2026-04-21 15:35 41.54980 21.28299 34020 ft 454 kts 66°
2026-04-21 15:36 41.56046 21.32256 33577 ft 452 kts 66°
2026-04-21 15:36 41.57104 21.36190 33159 ft 448 kts 66°
2026-04-21 15:36 41.58151 21.40095 32754 ft 444 kts 66°
2026-04-21 15:36 41.59183 21.43952 32411 ft 440 kts 66°
2026-04-21 15:37 41.60208 21.47783 32025 ft 437 kts 66°
2026-04-21 15:37 41.61225 21.51589 31658 ft 434 kts 66°
2026-04-21 15:37 41.62234 21.55374 31286 ft 431 kts 66°
2026-04-21 15:37 41.63239 21.59145 30926 ft 429 kts 66°
2026-04-21 15:38 41.64234 21.62886 30563 ft 427 kts 66°
2026-04-21 15:38 41.65225 21.66618 30211 ft 425 kts 66°
2026-04-21 15:38 41.66208 21.70327 29803 ft 423 kts 66°
2026-04-21 15:38 41.67187 21.74025 29393 ft 420 kts 66°
2026-04-21 15:39 41.68155 21.77689 28991 ft 417 kts 67°
2026-04-21 15:39 41.69117 21.81337 28626 ft 413 kts 67°
2026-04-21 15:39 41.70068 21.84949 28258 ft 410 kts 67°
2026-04-21 15:39 41.71012 21.88538 27871 ft 408 kts 67°
2026-04-21 15:40 41.71948 21.92103 27503 ft 405 kts 67°
2026-04-21 15:40 41.72878 21.95649 27130 ft 402 kts 67°
2026-04-21 15:40 41.73801 21.99171 26771 ft 399 kts 67°
2026-04-21 15:40 41.74716 22.02668 26404 ft 397 kts 67°
2026-04-21 15:41 41.75625 22.06150 26037 ft 395 kts 67°
2026-04-21 15:41 41.76529 22.09614 25694 ft 393 kts 67°
2026-04-21 15:41 41.77428 22.13066 25337 ft 391 kts 67°
2026-04-21 15:41 41.78321 22.16501 24974 ft 390 kts 68°
2026-04-21 15:42 41.79210 22.19925 24615 ft 388 kts 68°
2026-04-21 15:42 41.80094 22.23332 24267 ft 387 kts 68°
2026-04-21 15:42 41.80975 22.26735 23895 ft 386 kts 68°
2026-04-21 15:42 41.81854 22.30132 23536 ft 385 kts 68°
2026-04-21 15:43 41.82726 22.33513 23132 ft 384 kts 68°
2026-04-21 15:43 41.83598 22.36894 22745 ft 382 kts 68°
2026-04-21 15:43 41.84465 22.40261 22373 ft 380 kts 68°
2026-04-21 15:43 41.85325 22.43606 22017 ft 379 kts 68°
2026-04-21 15:44 41.86179 22.46935 21649 ft 377 kts 68°
2026-04-21 15:44 41.87032 22.50258 21296 ft 375 kts 68°
2026-04-21 15:44 41.87876 22.53557 20945 ft 373 kts 68°
2026-04-21 15:44 41.88706 22.56802 20601 ft 371 kts 68°
2026-04-21 15:45 41.89551 22.60112 20255 ft 369 kts 68°
2026-04-21 15:45 41.90380 22.63366 19921 ft 368 kts 68°
2026-04-21 15:45 41.91195 22.66564 19583 ft 367 kts 69°
2026-04-21 15:45 41.92018 22.69801 19235 ft 366 kts 69°
2026-04-21 15:46 41.92838 22.73027 18896 ft 365 kts 69°
2026-04-21 15:46 41.93655 22.76248 18534 ft 364 kts 69°
2026-04-21 15:46 41.94468 22.79457 18193 ft 362 kts 69°
2026-04-21 15:46 41.95274 22.82647 17819 ft 360 kts 69°
2026-04-21 15:47 41.96083 22.85826 17451 ft 358 kts 67°
2026-04-21 15:47 41.97206 22.88782 17090 ft 352 kts 51°
2026-04-21 15:47 41.98772 22.91239 16782 ft 343 kts 41°
2026-04-21 15:47 42.00448 22.93473 16452 ft 340 kts 40°
2026-04-21 15:48 42.02145 22.95688 16110 ft 338 kts 39°
2026-04-21 15:48 42.03825 22.97883 15790 ft 335 kts 40°
2026-04-21 15:48 42.05489 23.00071 15465 ft 333 kts 40°
2026-04-21 15:48 42.07136 23.02251 15138 ft 331 kts 40°
2026-04-21 15:49 42.08772 23.04429 14818 ft 330 kts 40°
2026-04-21 15:49 42.10397 23.06598 14497 ft 328 kts 40°
2026-04-21 15:49 42.12011 23.08757 14169 ft 327 kts 40°
2026-04-21 15:49 42.13618 23.10912 13849 ft 325 kts 41°
2026-04-21 15:50 42.15217 23.13057 13494 ft 324 kts 41°
2026-04-21 15:50 42.16808 23.15194 13164 ft 322 kts 41°
2026-04-21 15:50 42.18389 23.17319 12831 ft 320 kts 41°
2026-04-21 15:50 42.19961 23.19434 12494 ft 319 kts 41°
2026-04-21 15:51 42.21528 23.21545 12189 ft 318 kts 41°
2026-04-21 15:51 42.23091 23.23650 11866 ft 317 kts 41°
2026-04-21 15:51 42.24645 23.25746 11529 ft 313 kts 41°
2026-04-21 15:51 42.26164 23.27799 11207 ft 304 kts 41°
2026-04-21 15:52 42.27637 23.29790 10903 ft 296 kts 41°
2026-04-21 15:52 42.29072 23.31728 10604 ft 288 kts 40°
2026-04-21 15:52 42.30046 23.32930 10452 ft 285 kts 36°
2026-04-21 15:52 42.32110 23.35161 10092 ft 282 kts 33°
2026-04-21 15:53 42.33625 23.36745 9975 ft 269 kts 33°
2026-04-21 15:53 42.35086 23.38276 9690 ft 263 kts 33°
2026-04-21 15:53 42.36518 23.39784 9420 ft 260 kts 34°
2026-04-21 15:53 42.37944 23.41291 9165 ft 260 kts 34°
2026-04-21 15:54 42.39390 23.42825 8913 ft 270 kts 34°
2026-04-21 15:54 42.40889 23.44420 8633 ft 276 kts 35°
2026-04-21 15:54 42.42385 23.46022 8332 ft 271 kts 35°
2026-04-21 15:54 42.42863 23.46535 8235 ft 268 kts 35°
2026-04-21 15:55 42.46318 23.50248 7579 ft 259 kts 36°
2026-04-21 15:55 42.47738 23.51775 7346 ft 263 kts 36°
2026-04-21 15:55 42.49185 23.53331 7064 ft 266 kts 36°
2026-04-21 15:56 42.50632 23.54890 6801 ft 266 kts 36°
2026-04-21 15:56 42.52081 23.56453 6524 ft 266 kts 36°
2026-04-21 15:56 42.53530 23.58016 6260 ft 265 kts 36°
2026-04-21 15:56 42.54942 23.59542 6139 ft 254 kts 36°
2026-04-21 15:57 42.56289 23.60998 6009 ft 241 kts 36°
2026-04-21 15:57 42.57565 23.62379 5888 ft 228 kts 36°
2026-04-21 15:57 42.58758 23.63671 5850 ft 212 kts 36°
2026-04-21 15:57 42.59953 23.64771 5705 ft 205 kts 16°
2026-04-21 15:58 42.61358 23.65104 5535 ft 207 kts
2026-04-21 15:58 42.62811 23.65256 5301 ft 211 kts
2026-04-21 15:58 42.64256 23.65401 5163 ft 206 kts
2026-04-21 15:58 42.65704 23.65552 4922 ft 209 kts
2026-04-21 15:59 42.67081 23.65315 4651 ft 200 kts 333°
2026-04-21 15:59 42.67962 23.63986 4457 ft 189 kts 289°
2026-04-21 15:59 42.68232 23.62275 4300 ft 182 kts 284°
2026-04-21 15:59 42.68470 23.60620 4093 ft 174 kts 281°
2026-04-21 16:00 42.68609 23.59027 4002 ft 168 kts 277°
2026-04-21 16:00 42.68710 23.57474 3830 ft 163 kts 276°
2026-04-21 16:00 42.68800 23.55967 3604 ft 155 kts 276°
2026-04-21 16:00 42.68884 23.54533 3380 ft 152 kts 275°
2026-04-21 16:01 42.68969 23.53104 3171 ft 152 kts 274°
2026-04-21 16:01 42.69053 23.51671 2938 ft 152 kts 274°
2026-04-21 16:01 42.69137 23.50254 2718 ft 150 kts 274°
2026-04-21 16:01 42.69221 23.48847 2512 ft 149 kts 274°
2026-04-21 16:02 42.69305 23.47439 2318 ft 150 kts 274°
2026-04-21 16:02 42.69389 23.46033 2113 ft 148 kts 274°
2026-04-21 16:02 42.69472 23.44646 1895 ft 147 kts 274°
2026-04-21 16:02 42.69556 23.43278 1755 ft 140 kts 274°
2026-04-21 16:03 42.69619 23.42204 1748 ft 83 kts 274°
2026-04-21 16:03 42.69624 23.41724 1751 ft 40 kts 256°
2026-04-21 16:03 42.69576 23.41537 1745 ft 12 kts 245°
2026-04-21 16:03 42.69542 23.41440 1744 ft 8 kts 245°
2026-04-21 16:04 42.69526 23.41391 1745 ft 1 kts 245°
2026-04-21 16:04 42.69521 23.41379 1746 ft 1 kts 245°
2026-04-21 16:04 42.69520 23.41374 1746 ft 0 kts 245°
2026-04-21 16:05 42.69499 23.41311 1746 ft 12 kts 249°
2026-04-21 16:05 42.69458 23.41218 1746 ft 12 kts 207°
2026-04-21 16:05 42.69379 23.41191 1749 ft 11 kts 192°
2026-04-21 16:05 42.69302 23.41168 1746 ft 11 kts 192°
2026-04-21 16:06 42.69227 23.41146 1749 ft 11 kts 192°
2026-04-21 16:06 42.69155 23.41121 1749 ft 11 kts 204°
2026-04-21 16:06 42.69084 23.41132 1744 ft 10 kts 161°
2026-04-21 16:06 42.69062 23.41142 1742 ft 0 kts 162°